(342842) 2008 YB3 (2011)

Japanese version
Home page
Updated on January 27, 2013

---------------------------------------------------------------------

* Profile

Discovery Date December 18, 2008
Magnitude 18.1 mag
Discoverer Siding Spring Survey

* Pictures

* Orbital Elements

The following orbital elements are taken from MPO230251

Epoch 2012 Sept. 30.0 TT = JDT 2456200.5                MPC
M  14.32464              (2000.0)            P               Q
n   0.02479454     Peri.  330.58823     -0.45079314     +0.02065173
a  11.6474806      Node   112.49173     +0.88245467     +0.16081994
e   0.4429865      Incl.  105.01507     -0.13438488     +0.98676768
P  39.8            H    9.4           G   0.15           U   0
From 297 observations at 3 oppositions, 2008-2012, mean residual 0".38.

* Magnitudes Graph

        H = 9.0  G = 0.15

---------------------------------------------------------------------

The orbital elements are published at the MPC Ephemerides and Orbital Elements.
The magnitudes graphs are made with Comet for Windows.

---------------------------------------------------------------------

Copyright(C) Seiichi Yoshida (comet@aerith.net). All rights reserved.